This is the latest recevied weather packets stored in our database for station/object WB5NHL-13. If no packets are shown the sender has not sent any weather packets the latest 10 day(s).
| Time | Temp. | Humidity | Pressure | Rain* | Wind** | Luminosity | Snow |
|---|---|---|---|---|---|---|---|
| 1778007921 | 28.89° C | 43% | 1015.1 hPa | 0 mm | - | - | - |
| 1778004320 | 27.22° C | 47% | 1016.1 hPa | 0 mm | - | - | - |
| 1777995925 | 23.89° C | 70% | 1017.1 hPa | 0 mm | - | - | - |
| 1777992324 | 21.11° C | 77% | 1016.9 hPa | 0 mm | - | - | - |
| 1777986932 | 18.33° C | 86% | 1016.8 hPa | 0 mm | - | - | - |
| 1777980322 | 12.78° C | 99% | 1016.3 hPa | 0 mm | - | - | - |
| 1777974918 | 13.33° C | 95% | 1015.8 hPa | 0 mm | - | - | - |
| 1777972529 | 13.89° C | 93% | 1015.7 hPa | 0 mm | - | - | - |
| 1777971934 | 13.89° C | 92% | 1015.6 hPa | 0 mm | - | - | - |
| 1777971317 | 13.89° C | 91% | 1015.6 hPa | 0 mm | - | - | - |
| 1777970145 | 13.89° C | 90% | 1015.5 hPa | 0 mm | - | - | - |
| 1777968923 | 14.44° C | 87% | 1015.5 hPa | 0 mm | - | - | - |
| 1777965328 | 15° C | 84% | 1015.4 hPa | 0 mm | - | - | - |
| 1777964118 | 15° C | 83% | 1015.2 hPa | 0 mm | - | - | - |
| 1777963539 | 15° C | 81% | 1015.5 hPa | 0 mm | - | - | - |
| 1777958127 | 16.67° C | 74% | 1015.8 hPa | 0 mm | - | - | - |
| 1777956318 | 17.22° C | 72% | 1015.8 hPa | 0 mm | - | - | - |
| 1777950328 | 18.33° C | 67% | 1016.1 hPa | 0 mm | - | - | - |
| 1777948519 | 18.89° C | 67% | 1015.8 hPa | 0 mm | - | - | - |
| 1777946728 | 18.89° C | 65% | 1015.4 hPa | 0 mm | - | - | - |
| 1777944317 | 18.89° C | 64% | 1015 hPa | 0 mm | - | - | - |
| 1777943724 | 18.89° C | 63% | 1014.8 hPa | 0 mm | - | - | - |
| 1777940720 | 21.11° C | 54% | 1014.3 hPa | 0 mm | - | - | - |
| 1777940123 | 21.67° C | 54% | 1014.3 hPa | 0 mm | - | - | - |
| 1777927531 | 27.22° C | 36% | 1014.4 hPa | 0 mm | - | - | - |
* Rain latest hour (hover to see other rain measurements)
** Current wind speed in m/s (hover to see current wind gust speed)